This is the latest recevied weather packets stored in our database for station/object KG5CK-1. If no packets are shown the sender has not sent any weather packets the latest 10 day(s).
| Time | Temp. | Humidity | Pressure | Rain* | Wind** | Luminosity | Snow |
|---|---|---|---|---|---|---|---|
| 1787945533 | 38.33° C | 39% | 1012.9 hPa | 0 mm | 0.45 m/s, 94° | - | - |
| 1787945462 | 38.33° C | 39% | 1012.9 hPa | 0 mm | 0.45 m/s, 94° | - | - |
| 1787945403 | 38.33° C | 40% | 1012.8 hPa | 0 mm | 0.89 m/s, 120° | - | - |
| 1787945343 | 38.33° C | 40% | 1012.8 hPa | 0 mm | 0.89 m/s, 120° | - | - |
| 1787945283 | 38.33° C | 40% | 1012.8 hPa | 0 mm | 0.89 m/s, 120° | - | - |
| 1787945222 | 38.33° C | 40% | 1012.8 hPa | 0 mm | 0.89 m/s, 120° | - | - |
| 1787945163 | 37.78° C | 40% | 1012.9 hPa | 0 mm | 0.45 m/s, 71° | - | - |
| 1787945102 | 37.78° C | 40% | 1012.9 hPa | 0 mm | 0.45 m/s, 71° | - | - |
| 1787945043 | 37.78° C | 40% | 1012.9 hPa | 0 mm | 0.45 m/s, 71° | - | - |
| 1787944988 | 37.78° C | 40% | 1012.9 hPa | 0 mm | 0.45 m/s, 71° | - | - |
| 1787944923 | 37.78° C | 40% | 1012.9 hPa | 0 mm | 0.45 m/s, 71° | - | - |
| 1787944862 | 37.78° C | 40% | 1012.9 hPa | 0 mm | 0.45 m/s, 71° | - | - |
| 1787944803 | 38.33° C | 39% | 1013 hPa | 0 mm | 1.79 m/s, 50° | - | - |
| 1787944743 | 38.33° C | 39% | 1013 hPa | 0 mm | 1.79 m/s, 50° | - | - |
| 1787944683 | 38.33° C | 39% | 1013 hPa | 0 mm | 1.79 m/s, 50° | - | - |
| 1787944623 | 38.33° C | 39% | 1013 hPa | 0 mm | 1.79 m/s, 50° | - | - |
| 1787944563 | 38.33° C | 39% | 1013 hPa | 0 mm | 1.79 m/s, 50° | - | - |
| 1787944513 | 37.78° C | 38% | 1013 hPa | 0 mm | 0.89 m/s, 31° | - | - |
| 1787944442 | 37.78° C | 38% | 1013 hPa | 0 mm | 0.89 m/s, 31° | - | - |
| 1787944383 | 37.78° C | 38% | 1013 hPa | 0 mm | 0.89 m/s, 31° | - | - |
| 1787944323 | 37.78° C | 38% | 1013 hPa | 0 mm | 0.89 m/s, 31° | - | - |
| 1787944263 | 37.78° C | 38% | 1013 hPa | 0 mm | 0.89 m/s, 31° | - | - |
| 1787944203 | 38.33° C | 38% | 1013 hPa | 0 mm | 1.34 m/s, 78° | - | - |
| 1787944143 | 38.33° C | 38% | 1013 hPa | 0 mm | 1.34 m/s, 78° | - | - |
| 1787944082 | 38.33° C | 38% | 1013 hPa | 0 mm | 1.34 m/s, 78° | - | - |
* Rain latest hour (hover to see other rain measurements)
** Current wind speed in m/s (hover to see current wind gust speed)